Погода в Кудара-Сомоне

Россия / Республика Бурятия     50°09′35″N   107°23′40″E
темп.,
°C
ветер,
м/с
пор.,
м/с
влажн.,
%
обл.,
%
осадки,
мм/ч
давл.,
гПа
погр.,
м
26 января, вт
вт2623:00−21зсз2799100 0.2 1031356
02:00−21зсз2898100 0.4 1032316
05:00−23зсз2592100 0.0 1032145
08:00−24зсз1290100 0.0 103326
11:00−20зсз278199 0.0 1032570
14:00−18зсз377379 0.0 1030819
17:00−21ссз128623 0.0 103120
20:00−24ссв229060 0.0 103322
27 января, ср
ср2723:00−26с128883 0.0 103519
02:00−27с128982 0.0 103619
05:00−28с128997 0.0 103719
08:00−29с119093 0.0 103819
11:00−24зсз378456 0.0 1039682
14:00−23зсз488076 0.0 10371003
17:00−25зсз3891100 0.0 1038635
20:00−29сз129289 0.0 104120
28 января, чт
чт2823:00−30ююз11890 0.0 104119
02:00−31ююв22870 0.0 104024
05:00−30ююв23960 0.0 103829
08:00−29ююв228933 0.0 103637
11:00−24ю2380100 0.0 1033161
14:00−22ююз2380100 0.0 1029249
17:00−23ю2390100 0.0 102862
20:00−23ю2290100 0.0 103044
29 января, пт
пт2923:00−22ююв228597 0.0 102844
02:00−21ю228494 0.0 102541
05:00−20ю228699 0.0 102244
08:00−19ю228799 0.0 102038
11:00−15з1281100 0.0 1017136
14:00−12з2377100 0.0 1015347
17:00−14з1189100 0.0 101620
20:00−15в1283100 0.0 101821
30 января, сб
сб3023:00−14в1296100 0.2 101727
02:00−15в1193100 0.3 101720
05:00−16зсз1297100 0.2 101920
08:00−18зюз1210099 0.3 102221
11:00−14ююз129197 0.0 1022141
14:00−11ююз238499 0.0 1019266
17:00−13ююв2287100 0.0 101836
20:00−15ю128793 0.0 101827